Wind_Speed
4 4 5 5 4 4 3 3 2 2 2 2 2 2 2 2 2 3 3 3 4 4 4 5 5 6 6 7 8 9 9 9 8 8 7 7 7 7 7 7 7 7 7
4 5 5 5 5 5 4 4 4 4 4 4 3 3 3 4 3 3 3 4 4 5 5 5 6 6 6 7 8 9 9 9 9 9 8 8 8 8 8 8 8 8 7
5 6 6 6 5 6 6 6 6 6 5 5 4 4 4 5 5 5 4 5 5 5 5 6 6 6 6 6 7 7 9 10 9 9 8 8 8 8 9 9 9 9 8
5 6 6 6 6 7 7 7 7 6 6 5 5 5 6 5 6 6 6 6 6 6 6 7 6 5 5 5 6 6 8 9 8 9 9 9 9 9 10 10 10 10 9
6 6 6 6 7 7 8 8 7 7 7 7 6 6 6 6 6 6 6 6 6 7 7 8 7 6 6 5 5 6 7 7 8 9 9 10 10 10 10 11 11 11 11
6 6 7 7 7 8 8 8 8 8 7 8 8 7 7 7 6 6 6 7 7 7 7 8 8 7 7 6 6 6 6 7 8 9 10 10 10 11 11 12 12 12 12
6 7 7 8 9 8 9 9 9 9 8 8 8 8 8 7 7 7 7 8 8 8 7 8 8 8 8 7 7 7 7 8 9 10 10 11 12 12 12 13 13 13 13
7 8 7 8 8 8 9 9 8 8 8 8 8 8 8 9 9 9 8 9 9 9 9 8 9 8 8 8 8 8 9 9 10 11 11 11 12 13 13 14 14 14 14
7 7 7 7 7 6 7 7 8 8 8 8 9 9 9 10 10 10 10 10 10 10 10 10 9 10 9 9 9 9 10 11 11 12 11 12 12 12 13 14 14 14 15
7 7 7 7 6 6 6 7 8 8 9 9 9 10 10 11 11 11 10 10 10 10 11 11 11 11 11 10 10 10 11 11 11 11 11 12 12 13 13 14 14 14 16
8 7 7 7 7 7 7 8 8 8 9 9 10 10 11 11 12 12 11 11 11 11 11 12 12 12 11 11 11 11 11 11 11 11 12 13 13 13 13 14 14 15 16
7 7 7 8 7 7 8 8 8 8 9 10 11 11 12 12 12 11 12 12 12 12 11 11 12 12 12 12 12 12 11 11 11 11 12 13 13 13 13 14 14 15 16
9 9 9 9 9 9 8 8 9 9 10 11 11 12 12 13 12 12 12 12 12 12 12 12 12 13 12 12 12 12 12 12 12 12 12 12 13 14 14 14 15 15 16
10 10 10 10 10 9 9 8 9 10 10 11 11 12 13 13 13 12 12 13 13 13 13 13 13 13 13 13 13 13 13 13 13 13 12 12 12 13 13 14 14 15 15
10 10 10 10 10 10 9 9 9 9 10 10 11 12 12 13 13 12 12 13 13 13 14 13 13 14 14 13 13 13 14 14 14 14 13 13 13 13 13 13 13 13 13
10 11 11 11 11 10 10 10 10 10 10 10 10 10 11 13 12 12 12 12 13 14 14 14 14 14 14 14 14 14 14 15 15 15 14 14 14 14 14 14 14 14 13
11 11 11 12 12 12 11 11 11 11 11 10 10 11 11 12 12 12 13 13 14 15 15 15 15 15 15 15 15 15 15 15 14 15 14 14 15 15 15 15 15 15 14
11 11 11 12 12 12 12 12 12 12 12 11 11 11 12 12 12 12 13 14 14 15 15 15 16 16 16 16 16 15 15 14 14 14 15 15 15 15 15 15 16 15 15
11 11 11 12 12 11 12 12 12 13 13 12 11 12 12 12 12 13 13 13 14 14 15 15 15 15 15 15 15 15 14 14 14 14 15 15 15 15 16 16 16 16 16
12 12 12 12 12 12 12 12 13 12 12 12 12 12 12 12 12 13 13 12 13 13 14 14 14 15 15 15 15 15 15 15 15 16 16 16 17 17 17 17 16 16 17
13 13 13 12 12 12 12 12 12 12 12 12 12 12 12 13 13 13 13 13 13 13 14 14 15 15 14 15 15 16 16 16 16 17 17 17 17 18 19 18 18 17 17
13 13 13 13 12 12 12 12 13 12 13 12 13 12 12 13 13 13 13 13 13 14 14 15 15 15 15 15 16 16 16 16 17 18 18 18 18 18 19 19 19 19 19
13 14 14 14 14 13 13 13 13 13 13 13 13 13 14 14 13 13 13 13 14 14 14 15 15 15 15 16 16 17 17 17 18 18 18 18 18 19 20 20 20 20 20
13 14 14 14 14 14 14 14 14 14 14 15 15 15 15 15 14 14 14 14 15 15 15 15 15 16 16 17 17 18 18 18 18 19 19 19 19 20 20 21 21 20 20
14 15 14 14 14 14 14 14 15 15 15 16 16 16 16 16 16 15 15 15 15 15 16 16 16 17 17 18 18 18 19 19 20 20 20 20 20 20 20 20 21 21 21
15 15 15 15 15 14 14 15 15 15 16 16 17 17 16 16 17 16 17 17 16 16 17 17 17 18 18 18 19 19 20 21 21 21 21 21 21 21 21 21 21 22 21
Wind_Direction
227 234 244 244 243 248 245 245 249 272 291 296 301 274 265 266 270 268 264 262 263 269 271 272 280 282 283 278 267 258 250 245 246 247 244 245 250 256 262 260 256 256 257
238 250 255 254 254 258 253 252 255 265 275 275 272 272 275 269 269 268 266 270 269 269 276 280 285 291 290 281 268 256 250 245 244 247 248 251 253 257 262 262 259 257 259
248 255 256 254 257 263 262 259 262 268 269 271 263 266 275 271 266 269 266 269 270 270 274 279 287 297 294 286 272 255 245 243 242 246 250 254 255 259 263 263 263 261 261
253 256 254 256 261 265 264 263 262 266 268 272 270 267 270 278 274 270 265 270 271 270 273 276 280 287 289 284 274 254 242 239 247 251 250 253 257 260 262 263 267 263 261
261 254 255 257 260 265 264 263 263 264 267 268 270 268 270 273 272 267 263 269 272 274 275 274 276 278 279 278 266 251 244 248 256 259 256 256 260 262 262 262 263 263 263
266 264 264 263 266 263 262 260 260 263 264 265 268 268 270 268 267 267 261 264 272 277 277 276 273 275 273 273 267 262 261 259 259 263 263 263 265 266 264 262 260 261 262
269 274 277 271 271 261 257 258 260 260 261 262 265 264 265 262 261 266 264 265 271 276 277 277 274 271 269 268 263 260 260 263 262 266 269 269 268 267 266 265 262 261 261
275 279 278 277 272 263 256 253 258 260 261 261 261 262 264 264 263 265 266 267 271 275 276 274 274 268 265 266 266 262 265 266 266 269 271 273 272 269 269 268 263 262 263
276 282 279 279 271 261 253 252 256 259 260 263 263 265 265 264 263 266 266 266 268 270 271 273 273 269 265 268 271 272 271 272 269 270 271 273 273 271 270 269 265 263 262
274 279 279 278 272 260 256 256 262 264 262 262 261 264 265 263 261 265 266 267 266 268 271 273 271 270 268 268 271 275 277 275 272 272 271 273 274 273 272 269 265 263 261
268 272 275 277 275 269 265 261 268 268 265 264 263 265 266 266 265 263 267 269 269 270 273 274 273 270 271 272 273 273 274 276 276 275 273 272 274 275 273 271 267 264 262
269 272 274 270 267 269 269 271 269 266 265 264 263 265 268 269 267 264 265 266 268 271 272 273 274 272 272 274 275 276 275 277 279 278 278 277 274 274 274 272 269 267 265
268 270 274 273 268 264 264 268 268 270 270 267 265 267 269 267 265 265 266 265 267 268 269 271 273 276 277 276 276 278 278 278 280 280 279 278 277 275 273 271 268 269 269
268 267 269 272 274 268 266 268 271 272 271 269 271 272 272 270 268 266 266 266 265 266 266 267 271 274 275 276 275 276 279 281 282 281 280 279 280 280 274 272 271 269 270
266 266 265 266 270 271 272 273 275 276 277 274 272 271 271 271 269 266 266 267 266 267 266 267 270 272 275 277 277 279 282 283 285 286 285 284 283 282 277 274 273 272 272
262 264 264 265 266 269 271 273 274 274 275 277 278 276 274 272 271 269 268 269 269 271 270 269 271 274 276 276 276 278 280 282 282 281 280 282 282 281 279 276 275 277 277
262 263 264 266 266 269 272 272 271 273 273 275 279 282 280 277 274 273 272 271 270 270 271 272 271 272 274 274 274 275 277 280 280 280 278 278 277 277 277 276 276 276 275
261 263 263 265 266 268 269 270 270 271 270 269 272 278 280 281 277 275 272 272 272 271 270 270 271 271 272 272 274 274 276 278 280 280 277 277 277 276 278 278 276 275 273
262 263 262 263 265 268 270 269 270 272 270 267 269 274 278 280 281 281 277 276 275 273 271 270 270 270 270 271 272 274 276 276 278 281 280 279 279 278 278 278 277 274 272
260 261 261 262 262 264 267 269 270 272 273 271 271 273 277 281 282 282 279 278 276 276 275 274 273 271 271 273 274 275 276 277 278 279 279 279 277 276 275 277 277 274 273
262 260 259 258 261 265 267 268 268 270 272 274 275 277 278 280 281 280 279 278 277 276 275 274 274 272 271 273 276 277 279 280 280 280 280 278 277 276 274 275 274 274 275
261 259 259 259 260 263 266 269 267 268 270 270 272 277 277 280 281 279 280 279 277 277 276 274 274 272 273 274 276 278 280 282 283 283 281 279 278 277 275 273 273 273 274
263 260 259 259 260 262 266 268 269 266 269 268 270 274 276 280 281 278 278 277 276 275 275 273 273 274 274 275 276 278 280 282 283 284 283 281 280 277 275 273 273 273 272
267 265 265 264 263 265 269 271 274 271 270 272 273 273 277 279 281 280 276 275 276 276 275 274 273 275 277 277 278 280 280 282 284 283 283 282 279 278 276 274 273 273 271
268 265 266 268 267 269 269 271 275 274 271 272 273 274 276 277 277 278 276 273 273 274 274 273 274 277 278 277 278 280 281 283 284 283 283 281 279 277 276 274 273 272 271
266 264 264 268 269 270 270 271 274 277 275 272 273 274 275 276 277 278 277 275 274 275 277 276 277 277 277 277 278 280 282 284 284 284 284 281 279 277 276 275 274 272 271
Height
5862 5862 5863 5863 5863 5864 5864 5864 5864 5864 5865 5865 5865 5865 5865 5866 5866 5866 5867 5867 5867 5868 5868 5868 5868 5867 5866 5864 5863 5864 5866 5868 5870 5872 5873 5874 5874 5875 5875 5875 5876 5876 5876
5861 5862 5862 5862 5862 5863 5863 5863 5863 5864 5864 5864 5864 5864 5865 5865 5865 5865 5866 5866 5867 5867 5867 5867 5866 5865 5862 5859 5857 5858 5861 5864 5867 5870 5871 5872 5873 5873 5874 5874 5874 5875 5875
5860 5860 5861 5861 5861 5862 5862 5862 5862 5863 5863 5863 5863 5863 5864 5864 5864 5865 5865 5866 5866 5866 5866 5866 5865 5864 5861 5857 5855 5855 5859 5862 5865 5868 5870 5870 5871 5872 5872 5872 5873 5873 5873
5859 5859 5860 5860 5860 5860 5861 5861 5861 5861 5862 5862 5862 5862 5863 5863 5863 5864 5864 5864 5864 5865 5865 5865 5864 5862 5860 5858 5856 5856 5858 5861 5864 5866 5868 5869 5869 5870 5870 5871 5871 5871 5872
5858 5858 5858 5858 5858 5858 5859 5859 5859 5860 5860 5860 5861 5861 5862 5862 5862 5863 5863 5863 5863 5863 5863 5863 5863 5862 5861 5859 5858 5858 5859 5861 5863 5865 5866 5867 5868 5868 5868 5869 5869 5869 5870
5857 5857 5857 5857 5856 5856 5856 5857 5857 5858 5859 5859 5859 5860 5860 5861 5861 5861 5862 5862 5862 5862 5862 5862 5862 5862 5861 5860 5859 5859 5860 5861 5862 5863 5864 5865 5866 5866 5866 5867 5867 5867 5868
5856 5856 5855 5855 5854 5854 5854 5855 5856 5856 5857 5858 5858 5858 5859 5859 5860 5860 5860 5860 5860 5861 5861 5860 5860 5860 5860 5859 5859 5859 5859 5860 5861 5862 5862 5863 5863 5863 5864 5864 5864 5865 5865
5855 5854 5854 5853 5851 5850 5851 5852 5854 5854 5855 5856 5856 5857 5857 5857 5858 5858 5859 5859 5859 5859 5859 5859 5859 5859 5859 5859 5858 5858 5858 5859 5859 5860 5860 5860 5861 5861 5861 5862 5862 5862 5863
5853 5853 5852 5852 5850 5848 5849 5851 5852 5853 5854 5854 5855 5855 5856 5856 5856 5856 5856 5857 5857 5857 5857 5857 5857 5857 5857 5857 5857 5857 5857 5857 5857 5858 5858 5858 5858 5858 5859 5859 5859 5859 5860
5851 5851 5851 5851 5850 5849 5849 5850 5851 5852 5852 5853 5853 5853 5854 5854 5854 5854 5854 5854 5854 5855 5855 5855 5855 5855 5855 5855 5855 5855 5855 5855 5855 5855 5856 5856 5855 5856 5856 5856 5856 5856 5857
5850 5850 5850 5849 5849 5849 5849 5850 5850 5850 5851 5851 5851 5852 5852 5852 5852 5852 5852 5852 5852 5852 5852 5853 5853 5853 5853 5853 5853 5853 5853 5853 5853 5853 5853 5853 5853 5853 5853 5853 5853 5853 5854
5849 5849 5848 5848 5848 5848 5848 5848 5849 5849 5849 5849 5849 5849 5849 5849 5850 5850 5850 5850 5850 5850 5850 5850 5850 5850 5850 5851 5851 5850 5850 5850 5850 5850 5850 5850 5850 5849 5849 5849 5850 5850 5850
5847 5847 5847 5846 5846 5846 5847 5847 5847 5847 5847 5847 5847 5847 5847 5847 5847 5847 5847 5847 5847 5848 5848 5848 5848 5848 5848 5848 5848 5848 5848 5848 5847 5847 5847 5847 5847 5846 5846 5846 5846 5846 5846
5845 5845 5845 5844 5844 5844 5844 5844 5845 5845 5845 5845 5845 5844 5844 5844 5844 5844 5845 5844 5845 5845 5845 5845 5845 5845 5845 5845 5845 5845 5845 5845 5844 5844 5844 5844 5843 5843 5843 5843 5843 5843 5843
5842 5842 5842 5842 5842 5842 5842 5842 5842 5842 5842 5842 5842 5842 5842 5841 5841 5841 5841 5841 5841 5842 5842 5842 5842 5842 5842 5842 5842 5842 5842 5842 5841 5841 5841 5841 5840 5840 5840 5840 5839 5839 5839
5840 5840 5840 5840 5840 5840 5840 5840 5840 5840 5840 5840 5840 5839 5839 5839 5838 5838 5838 5838 5838 5838 5839 5839 5839 5839 5839 5839 5839 5839 5839 5838 5838 5838 5838 5838 5837 5837 5836 5836 5836 5836 5836
5837 5837 5837 5837 5837 5837 5837 5837 5838 5837 5837 5837 5837 5837 5836 5836 5836 5835 5835 5835 5835 5835 5835 5835 5835 5835 5835 5835 5835 5835 5835 5835 5835 5834 5834 5834 5834 5834 5833 5833 5833 5833 5833
5834 5834 5834 5834 5834 5834 5834 5834 5835 5835 5835 5834 5834 5834 5833 5833 5832 5832 5832 5831 5831 5831 5831 5831 5831 5832 5832 5832 5832 5832 5832 5832 5831 5831 5831 5830 5830 5830 5830 5829 5829 5829 5829
5831 5831 5831 5831 5831 5831 5832 5831 5831 5832 5831 5831 5831 5831 5830 5830 5829 5829 5828 5828 5827 5827 5827 5827 5827 5828 5828 5828 5828 5828 5828 5828 5828 5827 5827 5827 5826 5826 5826 5825 5825 5825 5825
5828 5828 5828 5828 5828 5828 5828 5828 5828 5828 5828 5828 5828 5828 5827 5827 5826 5825 5825 5824 5824 5823 5823 5823 5824 5824 5824 5824 5824 5824 5824 5824 5824 5823 5823 5823 5822 5822 5822 5821 5821 5821 5821
5824 5824 5824 5824 5824 5824 5825 5825 5825 5825 5825 5825 5825 5824 5824 5824 5823 5822 5821 5821 5820 5820 5820 5820 5820 5820 5820 5821 5821 5821 5820 5820 5820 5819 5819 5819 5818 5817 5817 5817 5816 5816 5816
5821 5820 5821 5821 5821 5821 5821 5821 5821 5822 5821 5821 5821 5821 5821 5820 5819 5819 5818 5817 5817 5816 5816 5816 5816 5817 5817 5817 5817 5817 5817 5817 5815 5815 5814 5814 5813 5813 5812 5812 5812 5811 5811
5817 5817 5817 5817 5817 5817 5817 5818 5818 5818 5818 5818 5818 5818 5817 5817 5816 5815 5814 5814 5813 5813 5813 5813 5813 5813 5813 5813 5813 5813 5813 5812 5811 5810 5809 5809 5808 5807 5807 5807 5806 5806 5806
5813 5813 5814 5814 5814 5814 5814 5814 5814 5814 5815 5815 5815 5814 5814 5813 5812 5812 5811 5810 5810 5810 5809 5809 5809 5809 5809 5809 5809 5808 5808 5807 5807 5806 5805 5803 5802 5802 5801 5801 5801 5801 5801
5810 5810 5810 5810 5810 5810 5810 5810 5811 5811 5811 5811 5810 5810 5810 5809 5809 5808 5807 5806 5806 5806 5806 5805 5805 5805 5805 5804 5804 5803 5803 5802 5801 5800 5799 5798 5797 5796 5796 5795 5795 5796 5796
5806 5806 5806 5807 5807 5807 5807 5807 5806 5806 5806 5806 5806 5806 5805 5805 5805 5804 5804 5803 5802 5802 5801 5801 5801 5800 5800 5800 5799 5798 5797 5797 5795 5794 5793 5792 5791 5791 5790 5790 5790 5790 5790